EW8925 Weather Reports


Display with metric or nautical units.
time (UTC)temp
F
wind
direction
speed
MPH
gust
MPH
rain 1hr
in
rain 24hr
in
rain mn
in
humidity
%
barometer
mb
20260504201556 50 0.0 0.0 0.00 0.00 0.00 48 1009.1
20260504200055 50 0.0 0.0 0.00 0.00 0.00 48 1009.3
20260504194558 50 0.0 0.0 0.00 0.00 0.00 48 1009.4
20260504193106 49 0.0 0.0 0.00 0.00 0.00 49 1009.6
20260504191553 50 0.0 0.0 0.00 0.00 0.00 49 1009.5
20260504184552 50 0.0 0.0 0.00 0.00 0.00 49 1009.5
20260504183059 50 0.0 0.0 0.00 0.00 0.00 49 1009.6
20260504181550 49 0.0 0.0 0.00 0.00 0.00 49 1009.7
20260504180130 50 0.0 0.0 0.00 0.00 0.00 49 1009.7
20260504174549 49 0.0 0.0 0.00 0.00 0.00 50 1009.5
20260504173048 49 0.0 0.0 0.00 0.00 0.00 51 1009.4
20260504171549 48 0.0 0.0 0.00 0.00 0.00 53 1009.4
20260504100116 35 0.0 0.0 0.00 0.00 0.00 83 1004.4
20260504081543 38 0.0 0.0 0.00 0.00 0.00 80 1004.6
20260504044534 44 0.0 0.0 0.00 0.00 0.00 68 1005.4
20260504043038 44 0.0 0.0 0.00 0.00 0.00 67 1005.3
20260504041525 46 0.0 0.0 0.00 0.00 0.00 65 1005.3
20260504040025 46 0.0 0.0 0.00 0.00 0.00 64 1005.3
20260504034524 47 0.0 0.0 0.00 0.00 0.00 63 1005.3
20260504033023 48 0.0 0.0 0.00 0.00 0.00 62 1005.0
20260504031523 48 0.0 0.0 0.00 0.00 0.00 61 1005.2
20260504030022 49 0.0 0.0 0.00 0.00 0.00 60 1005.0
20260504024521 50 0.0 0.0 0.00 0.00 0.00 60 1004.9
20260504023021 52 0.0 0.0 0.00 0.00 0.00 55 1004.9
20260504021519 57 0.0 0.0 0.00 0.00 0.00 47 1004.9
20260504020021 61 0.0 0.0 0.00 0.00 0.00 38 1004.9
20260504014518 64 0.0 0.0 0.00 0.00 0.00 32 1005.0
20260504013020 65 0.0 0.0 0.00 0.00 0.00 31 1004.9
20260504011515 64 0.0 0.0 0.00 0.00 0.00 31 1005.1
20260504010014 65 0.0 0.0 0.00 0.00 0.00 30 1005.2
20260504004518 65 0.0 0.0 0.00 0.00 0.00 30 1005.4
20260504003011 66 0.0 0.0 0.00 0.00 0.00 29 1005.5
20260504001512 66 0.0 0.0 0.00 0.00 0.00 30 1005.5
20260504000007 65 0.0 0.0 0.00 0.00 0.00 30 1005.8
20260503234505 65 0.0 0.0 0.00 0.00 0.00 29 1005.9
20260503233003 65 0.0 0.0 0.00 0.00 0.00 30 1006.1
20260503231501 65 0.0 0.0 0.00 0.00 0.00 32 1006.1
20260503230117 64 0.0 0.0 0.00 0.00 0.00 32 1006.3
20260503224603 63 0.0 0.0 0.00 0.00 0.00 31 1006.4
20260503223056 64 0.0 0.0 0.00 0.00 0.00 31 1006.7
20260503221601 64 0.0 0.0 0.00 0.00 0.00 31 1006.6
20260503220055 64 0.0 0.0 0.00 0.00 0.00 30 1006.7
20260503214552 63 0.0 0.0 0.00 0.00 0.00 32 1007.0
20260503213100 62 0.0 0.0 0.00 0.00 0.00 37 1007.1
20260503211609 60 0.0 0.0 0.00 0.00 0.00 40 1007.2
20260503210050 58 0.0 0.0 0.00 0.00 0.00 47 1007.2
20260503204550 56 0.0 0.0 0.00 0.00 0.00 42 1007.3
20260503203052 58 0.0 0.0 0.00 0.00 0.00 42 1008.4